Location: Bothwell
(42.3833°S, 147.0000°E)
Time: 10:09:41
(UTC+11:00)

NOAA 18 - Pass Details

Date: 06 October 2023
Orbit: 839 x 858 km, 98.9° (Epoch: 06 December)

Event Time Altitude Azimuth Distance (km) Brightness Sun altitude
Rises 01:08:09 0° 176° (S) 3,469 9.2 -42.8°
Reaches altitude 10° 01:10:48 10° 186° (S) 2,523 8.3 -42.8°
Enters shadow 01:12:22 18° 196° (SSW) 2,027 7.6 -42.8°
